Location: Arrakis Observatory
(44.1122°N, 95.7153°W)
Time: 12:46:19
(UTC-06:00)

Amateur Radio Satellites - All Passes

Search period start: 03 March 2015 12:16
Search period end: 04 March 2015 12:16
Location: Arrakis Observatory, 44.1122°N, 95.7153°W

Satellite Date Start Highest point End Downlink Frequencies (MHz)
Time Altitude Azimuth
AISAT 03 Mar 12:33:11 12:36:18 18° 296° (WNW) 12:39:18 437.250
CUBEBUG 1 03 Mar 12:33:18 12:37:23 36° 290° (WNW) 12:41:23 437.445
50 SAT 03 Mar 12:35:43 12:37:53 14° 296° (WNW) 12:39:54 437.505
VELOX 1 03 Mar 12:42:40 12:45:24 16° 297° (WNW) 12:47:59 145.980
ISS 03 Mar 12:57:43 13:00:22 22° 8° (N) 13:03:01 145.825
ESTCUBE 1 03 Mar 13:00:35 13:03:58 20° 295° (WNW) 13:07:14 437.505/2401.250
SPROUT 03 Mar 13:02:13 13:06:30 65° 286° (WNW) 13:10:44 437.525
SWISSCUBE 03 Mar 13:02:42 13:06:13 21° 91° (E) 13:09:52 437.505
TISAT 1 03 Mar 13:03:24 13:07:37 70° 285° (WNW) 13:11:47 437.305
BEESAT 03 Mar 13:11:01 13:14:46 23° 92° (E) 13:18:36 436.000
Gurwin Techsat 1B 03 Mar 13:23:23 13:28:16 39° 68° (ENE) 13:33:14 435.225
AO-7 03 Mar 13:31:00 13:36:41 21° 50° (NE) 13:42:36 29.400- 29.500
ITUPSAT 1 03 Mar 13:38:22 13:42:56 41° 98° (E) 13:47:29 437.325
ITAMSAT 1 03 Mar 13:46:02 13:51:16 82° 76° (ENE) 13:56:33 435.822/435.867
Oscar 19 03 Mar 13:46:41 13:51:24 36° 264° (W) 13:56:07 437.125/150
HORYU 2 03 Mar 14:12:50 14:16:37 29° 68° (ENE) 14:20:27 437.375
JAS-2 03 Mar 14:19:45 14:22:57 16° 54° (NE) 14:26:34 435.910
ISS 03 Mar 14:34:02 14:37:15 61° 28° (NNE) 14:40:27 145.825
SWISSCUBE 03 Mar 14:39:45 14:44:23 47° 289° (WNW) 14:48:58 437.505
KKS-1 03 Mar 14:45:38 14:49:48 39° 98° (E) 14:53:58 437.445
BEESAT 03 Mar 14:48:16 14:52:50 42° 290° (WNW) 14:57:19 436.000
STARS 03 Mar 14:50:14 14:54:02 29° 95° (E) 14:57:52 437.465
Gurwin Techsat 1B 03 Mar 15:03:45 15:08:23 29° 266° (W) 15:12:57 435.225
YUBILEINY 03 Mar 15:13:46 15:20:54 31° 84° (E) 15:28:20 435.215
ITUPSAT 1 03 Mar 15:16:42 15:20:38 25° 295° (WNW) 15:24:28 437.325
AO-7 03 Mar 15:20:04 15:28:24 81° 70° (ENE) 15:36:46 29.400- 29.500
ITAMSAT 1 03 Mar 15:28:58 15:31:32 13° 273° (W) 15:33:49 435.822/435.867
HORYU 2 03 Mar 15:49:21 15:53:15 29° 265° (W) 15:57:07 437.375
JAS-2 03 Mar 16:01:32 16:07:04 88° 79° (ENE) 16:13:22 435.910
MOZHAYETS 4 03 Mar 16:04:26 16:07:03 15° 88° (E) 16:09:52
ISS 03 Mar 16:11:00 16:13:25 19° 224° (SW) 16:15:48 145.825
KKS-1 03 Mar 16:22:47 16:26:14 22° 295° (WNW) 16:29:36 437.445
STARS 03 Mar 16:26:42 16:30:29 28° 292° (WNW) 16:34:13 437.465
BEESAT 3 03 Mar 16:36:35 16:39:47 23° 114° (ESE) 16:43:05 437.485
M-CUBED/EXP-1 PRIME 03 Mar 16:49:12 16:53:20 47° 105° (ESE) 16:57:45 437.505
AUBIESAT-1 03 Mar 16:50:22 16:54:27 43° 104° (ESE) 16:58:51 437.475
BEESAT 2 03 Mar 17:02:32 17:06:18 36° 117° (ESE) 17:10:10 435.950
AIST 2 03 Mar 17:06:44 17:09:19 16° 111° (ESE) 17:12:04 435.215
YUBILEINY 03 Mar 17:08:35 17:17:14 62° 284° (WNW) 17:25:57 435.215
AO-7 03 Mar 17:15:47 17:22:13 23° 270° (W) 17:28:20 29.400- 29.500
Cubesat XI-IV 03 Mar 17:20:14 17:25:25 52° 70° (ENE) 17:30:39 437.490
VERMONT LUNAR 03 Mar 17:25:32 17:28:15 21° 158° (SSE) 17:30:59 437.305
CUTE-I 03 Mar 17:28:49 17:34:05 60° 72° (ENE) 17:39:25 437.470
PHONESAT 2.4 03 Mar 17:37:02 17:39:16 16° 153° (SSE) 17:41:32 2401.200-2431.200
MOZHAYETS 4 03 Mar 17:40:10 17:44:45 59° 286° (WNW) 17:49:19
JAS-2 03 Mar 17:50:46 17:53:28 13° 278° (W) 17:55:55 435.910
CUBESAT XI-V 03 Mar 18:05:28 18:09:05 22° 91° (E) 18:12:46 437.345
BEESAT 3 03 Mar 18:13:48 18:17:41 39° 311° (NW) 18:21:37 437.485
AIST 1 03 Mar 18:16:57 18:21:23 71° 80° (E) 18:25:45
O/OREOS (USA 219) 03 Mar 18:21:27 18:25:35 32° 57° (ENE) 18:29:43 437.305
PRISM 03 Mar 18:23:51 18:27:36 30° 96° (E) 18:31:22 437.425
M-CUBED/EXP-1 PRIME 03 Mar 18:24:53 18:28:02 20° 299° (WNW) 18:31:14 437.505
AUBIESAT-1 03 Mar 18:25:51 18:29:08 22° 298° (WNW) 18:32:30 437.475
STRAND 1 03 Mar 18:35:29 18:39:46 27° 93° (E) 18:44:06 437.568
BEESAT 2 03 Mar 18:40:58 18:44:35 27° 316° (NW) 18:48:10 435.950
AIST 2 03 Mar 18:43:19 18:47:32 58° 308° (NW) 18:51:48 435.215
Cubesat XI-IV 03 Mar 19:01:39 19:05:52 22° 269° (W) 19:09:59 437.490
VERMONT LUNAR 03 Mar 19:02:24 19:05:45 43° 174° (S) 19:09:05 437.305
CUTE 1.7 + AOD 2 03 Mar 19:06:16 19:08:19 14° 63° (ENE) 19:10:33 437.475
CUTE-I 03 Mar 19:10:48 19:14:39 19° 270° (W) 19:18:21 437.470
YUBILEINY 03 Mar 19:12:09 19:16:28 14° 309° (NW) 19:20:14 435.215
PHONESAT 2.4 03 Mar 19:13:47 19:17:12 38° 168° (SSE) 19:20:37 2401.200-2431.200
BRITE-PL 03 Mar 19:15:14 19:20:14 35° 69° (ENE) 19:25:05 437.365/2234.400
GOMX 1 03 Mar 19:15:30 19:19:39 24° 67° (ENE) 19:23:45 467.674
HO-68 03 Mar 19:21:57 19:28:30 42° 64° (ENE) 19:35:10 435.675
PCSat 03 Mar 19:23:56 19:26:36 14° 105° (ESE) 19:29:32 145.827
CUBESAT XI-V 03 Mar 19:42:17 19:46:45 42° 289° (WNW) 19:51:09 437.345
AAUSAT CUBESAT 2 03 Mar 19:44:52 19:47:55 21° 67° (ENE) 19:51:05 437.432
DOVE 4 03 Mar 19:44:53 19:49:16 30° 69° (ENE) 19:53:31 437.250
CINEMA 3 03 Mar 19:46:20 19:49:16 17° 65° (ENE) 19:52:17 145.822/145.860
Oscar 11 03 Mar 19:47:04 19:48:37 12° 62° (ENE) 19:50:21 145.826/435.025
COMPASS 1 03 Mar 19:47:57 19:51:21 25° 68° (ENE) 19:54:49 437.405
AIST 1 03 Mar 19:57:09 19:58:30 11° 276° (W) 19:59:34
PRISM 03 Mar 19:59:29 20:03:01 25° 293° (WNW) 20:06:28 437.425
CUBEBUG 2 03 Mar 20:00:40 20:02:34 13° 63° (ENE) 20:04:38 437.445
O/OREOS (USA 219) 03 Mar 20:00:58 20:04:58 29° 255° (WSW) 20:08:52 437.305
DX 1 03 Mar 20:13:10 20:14:50 12° 61° (ENE) 20:16:42 434.975-435.025
STRAND 1 03 Mar 20:14:18 20:19:08 41° 291° (WNW) 20:23:54 437.568
SEEDS 03 Mar 20:16:10 20:20:18 61° 74° (ENE) 20:24:26 437.485
CANX-2 03 Mar 20:21:08 20:25:22 89° 254° (WSW) 20:29:36 2200.000
AIST 2 03 Mar 20:25:30 20:27:07 12° 329° (NNW) 20:28:37 435.215
FUNcube-1 03 Mar 20:32:40 20:35:31 18° 66° (ENE) 20:38:28 145.935
ZACube-1 03 Mar 20:34:12 20:37:11 19° 66° (ENE) 20:40:15 437.345
UKube-1 03 Mar 20:39:32 20:42:44 21° 65° (ENE) 20:46:03 .
CUTE 1.7 + AOD 2 03 Mar 20:39:39 20:43:49 62° 259° (W) 20:48:01 437.475
VERMONT LUNAR 03 Mar 20:40:06 20:43:22 38° 191° (S) 20:46:39 437.305
DELFI C3 03 Mar 20:45:09 20:48:48 34° 71° (ENE) 20:52:30 145.870
PHONESAT 2.4 03 Mar 20:51:52 20:55:22 46° 185° (S) 20:58:52 2401.200-2431.200
GOMX 1 03 Mar 20:52:22 20:57:33 48° 261° (W) 21:02:30 467.674
BRITE-PL 03 Mar 20:53:34 20:58:43 35° 265° (W) 21:03:38 437.365/2234.400
UWE-3 03 Mar 20:54:49 20:58:50 36° 71° (ENE) 21:02:49 435.000/436.395/437.385
PCSat 03 Mar 21:03:57 21:09:23 84° 301° (WNW) 21:14:52 145.827
HO-68 03 Mar 21:09:34 21:16:16 41° 263° (W) 21:22:57 435.675
AAUSAT CUBESAT 2 03 Mar 21:19:33 21:23:24 36° 263° (W) 21:27:14 437.432
Oscar 11 03 Mar 21:19:58 21:24:15 76° 257° (WSW) 21:28:35 145.826/435.025
CINEMA 3 03 Mar 21:21:27 21:26:10 58° 260° (W) 21:30:40 145.822/145.860
GONETS M04 03 Mar 21:21:41 21:29:39 44° 88° (E) 21:37:44
DOVE 4 03 Mar 21:22:18 21:26:58 34° 264° (W) 21:31:25 437.250
COMPASS 1 03 Mar 21:23:20 21:27:00 29° 265° (W) 21:30:38 437.405
CUBEBUG 2 03 Mar 21:34:20 21:38:49 73° 258° (WSW) 21:43:12 437.445
DX 1 03 Mar 21:46:08 21:50:32 79° 257° (WSW) 21:54:58 434.975-435.025
50 SAT 03 Mar 21:47:31 21:51:13 39° 72° (ENE) 21:54:57 437.505
SEEDS 03 Mar 21:54:48 21:56:37 12° 272° (W) 21:58:13 437.485
AISAT 03 Mar 21:54:57 21:59:19 54° 73° (ENE) 22:03:45 437.250
CUBEBUG 1 03 Mar 21:55:13 21:58:46 24° 67° (ENE) 22:02:23 437.445
HUMSAT D 03 Mar 22:02:38 22:06:50 84° 76° (ENE) 22:11:00 437.325/437.525
VELOX 1 03 Mar 22:03:49 22:08:15 65° 73° (ENE) 22:12:44 145.980
FUNcube-1 03 Mar 22:07:23 22:11:36 46° 261° (W) 22:15:44 145.935
ZACube-1 03 Mar 22:09:08 22:13:19 44° 262° (W) 22:17:25 437.345
UKube-1 03 Mar 22:14:32 22:18:40 41° 262° (W) 22:22:48 .
RS-15 03 Mar 22:18:18 22:27:26 34° 107° (ESE) 22:36:57 29.354- 29.394
VERMONT LUNAR 03 Mar 22:18:33 22:20:47 16° 206° (SSW) 22:22:58 437.305
DELFI C3 03 Mar 22:21:06 22:24:08 20° 268° (W) 22:27:07 145.870
ESTCUBE 1 03 Mar 22:24:02 22:28:24 51° 72° (ENE) 22:32:50 437.505/2401.250
SPROUT 03 Mar 22:24:24 22:26:19 13° 62° (ENE) 22:28:26 437.525
TISAT 1 03 Mar 22:24:27 22:25:54 12° 61° (ENE) 22:27:34 437.305
PHONESAT 2.4 03 Mar 22:30:28 22:33:26 23° 202° (SSW) 22:36:22 2401.200-2431.200
UWE-3 03 Mar 22:32:01 22:35:31 22° 267° (W) 22:38:52 435.000/436.395/437.385
UNISAT 6 03 Mar 22:33:08 22:37:02 33° 96° (E) 22:41:00 437.425
QB50P1 03 Mar 22:38:30 22:41:42 21° 93° (E) 22:44:58 145.935-145.965
QB50P2 03 Mar 22:42:38 22:46:02 24° 93° (E) 22:49:29 145.880/145.840
BUGSAT 1 03 Mar 22:42:51 22:45:32 17° 91° (E) 22:48:19 437.445
PCSat 03 Mar 22:49:57 22:53:42 18° 323° (NW) 22:57:19 145.827
DUCHIFAT 1 03 Mar 22:56:21 23:00:08 32° 96° (E) 23:03:55 145.980
TIGRISAT 03 Mar 22:57:24 23:01:38 59° 101° (E) 23:05:55 435.000
DANDE 03 Mar 22:58:45 23:02:36 17° 93° (E) 23:06:08 436.750
ANTELSAT 03 Mar 23:11:40 23:15:59 87° 102° (ESE) 23:20:21 437.575/2403.000
POPSAT HIP 1 03 Mar 23:17:41 23:21:51 56° 100° (E) 23:26:00 437.405
POLYITAN 1 03 Mar 23:17:49 23:21:59 57° 100° (E) 23:26:09 437.675
GONETS M04 03 Mar 23:18:19 23:26:33 44° 289° (WNW) 23:34:43
CUSAT 1 03 Mar 23:19:57 23:25:04 30° 96° (E) 23:29:11 437.405
50 SAT 03 Mar 23:23:43 23:26:27 17° 269° (W) 23:29:03 437.505
CUBEBUG 1 03 Mar 23:30:52 23:34:59 36° 264° (W) 23:39:06 437.445
AISAT 03 Mar 23:33:27 23:36:20 16° 270° (W) 23:39:03 437.250
NANOSAT C BR1 03 Mar 23:40:20 23:44:36 82° 283° (WNW) 23:48:48 145.865
VELOX 1 03 Mar 23:43:04 23:45:21 13° 272° (W) 23:47:26 145.980
TISAT 1 03 Mar 23:56:54 00:01:11 78° 257° (WSW) 00:05:29 437.305
SPROUT 03 Mar 23:57:36 00:01:56 70° 258° (WSW) 00:06:16 437.525
ESTCUBE 1 04 Mar 00:02:36 00:05:39 17° 270° (W) 00:08:33 437.505/2401.250
UNISAT 6 04 Mar 00:10:14 00:13:43 24° 293° (WNW) 00:17:10 437.425
SWISSCUBE 04 Mar 00:10:44 00:14:46 28° 67° (ENE) 00:18:55 437.505
QB50P1 04 Mar 00:13:50 00:17:43 35° 290° (WNW) 00:21:34 145.935-145.965
BUGSAT 1 04 Mar 00:17:20 00:21:18 42° 289° (WNW) 00:25:11 437.445
QB50P2 04 Mar 00:18:14 00:22:01 32° 291° (WNW) 00:25:45 145.880/145.840
BEESAT 04 Mar 00:18:58 00:23:08 31° 68° (ENE) 00:27:23 436.000
SO-50 04 Mar 00:24:14 00:26:08 13° 109° (ESE) 00:28:19 436.795
RS-15 04 Mar 00:28:09 00:39:03 72° 310° (NW) 00:50:11 29.354- 29.394
DUCHIFAT 1 04 Mar 00:32:26 00:35:52 24° 293° (WNW) 00:39:14 145.980
TIGRISAT 04 Mar 00:35:34 00:38:00 15° 297° (WNW) 00:40:17 435.000
DANDE 04 Mar 00:39:17 00:45:54 68° 282° (WNW) 00:50:48 436.750
ITUPSAT 1 04 Mar 00:46:36 00:51:15 56° 72° (ENE) 00:56:00 437.325
ANTELSAT 04 Mar 00:51:21 00:52:13 10° 299° (WNW) 00:52:52 437.575/2403.000
BEESAT 3 04 Mar 00:53:47 00:57:18 26° 44° (NE) 01:00:49 437.485
POPSAT HIP 1 04 Mar 00:54:52 00:57:22 15° 297° (WNW) 00:59:43 437.405
POLYITAN 1 04 Mar 00:55:04 00:57:31 15° 297° (WNW) 00:59:49 437.675
CUSAT 1 04 Mar 01:02:34 01:07:55 33° 285° (WNW) 01:12:01 437.405
BEESAT 2 04 Mar 01:20:38 01:24:34 38° 48° (NE) 01:28:26 435.950
YUBILEINY 04 Mar 01:21:42 01:26:45 17° 54° (NE) 01:32:15 435.215
AIST 2 04 Mar 01:25:54 01:29:12 21° 40° (NE) 01:32:31 435.215
Gurwin Techsat 1B 04 Mar 01:39:37 01:42:01 13° 86° (E) 01:44:42 435.225
KKS-1 04 Mar 01:45:12 01:49:26 44° 71° (ENE) 01:53:43 437.445
SWISSCUBE 04 Mar 01:48:12 01:52:34 34° 264° (W) 01:56:56 437.505
STARS 04 Mar 01:48:44 01:52:38 32° 69° (ENE) 01:56:35 437.465
Oscar 19 04 Mar 01:56:04 02:01:12 72° 102° (ESE) 02:06:20 437.125/150
BEESAT 04 Mar 01:56:44 02:00:59 31° 265° (W) 02:05:12 436.000
ITAMSAT 1 04 Mar 01:58:00 02:02:17 26° 93° (E) 02:06:38 435.822/435.867
SO-50 04 Mar 02:01:26 02:06:04 82° 305° (NW) 02:10:52 436.795
ITUPSAT 1 04 Mar 02:26:22 02:29:36 17° 270° (W) 02:32:39 437.325
BEESAT 3 04 Mar 02:31:39 02:35:30 37° 243° (WSW) 02:39:16 437.485
RS-15 04 Mar 02:44:25 02:53:50 31° 340° (NNW) 03:03:24 29.354- 29.394
BEESAT 2 04 Mar 02:59:11 03:02:34 24° 246° (WSW) 03:05:50 435.950
AIST 2 04 Mar 03:03:57 03:08:08 54° 240° (WSW) 03:12:14 435.215
MOZHAYETS 4 04 Mar 03:08:09 03:11:09 18° 64° (ENE) 03:14:18
JAS-2 04 Mar 03:09:51 03:13:42 15° 83° (E) 03:18:06 435.910
YUBILEINY 04 Mar 03:16:42 03:25:34 73° 79° (E) 03:34:24 435.215
Gurwin Techsat 1B 04 Mar 03:17:25 03:22:46 82° 287° (WNW) 03:28:06 435.225
AO-7 04 Mar 03:21:01 03:27:12 24° 90° (E) 03:33:41 29.400- 29.500
KKS-1 04 Mar 03:23:03 03:26:20 19° 268° (W) 03:29:31 437.445
STARS 04 Mar 03:25:22 03:29:09 26° 266° (W) 03:32:52 437.465
Oscar 19 04 Mar 03:36:47 03:40:03 17° 299° (WNW) 03:43:08 437.125/150
ITAMSAT 1 04 Mar 03:37:03 03:41:59 43° 291° (WNW) 03:46:52 435.822/435.867
HORYU 2 04 Mar 03:38:33 03:42:50 46° 99° (E) 03:47:08 437.375
M-CUBED/EXP-1 PRIME 04 Mar 03:40:30 03:43:49 77° 72° (ENE) 03:47:19 437.505
AUBIESAT-1 04 Mar 03:41:12 03:44:30 68° 70° (ENE) 03:47:59 437.475
SO-50 04 Mar 03:44:19 03:47:26 17° 327° (NNW) 03:50:31 436.795
PCSat 04 Mar 04:07:48 04:11:51 21° 40° (NE) 04:16:00 145.827
MOZHAYETS 4 04 Mar 04:43:34 04:48:02 53° 261° (W) 04:52:32
JAS-2 04 Mar 04:52:26 04:59:56 75° 103° (ESE) 05:07:49 435.910
Gurwin Techsat 1B 04 Mar 04:59:36 05:02:01 13° 302° (WNW) 05:04:10 435.225
RS-15 04 Mar 05:01:38 05:10:45 28° 14° (NNE) 05:20:18 29.354- 29.394
CUBESAT XI-V 04 Mar 05:10:25 05:14:15 26° 67° (ENE) 05:18:12 437.345
AO-7 04 Mar 05:12:39 05:20:59 79° 291° (WNW) 05:29:15 29.400- 29.500
YUBILEINY 04 Mar 05:14:42 05:21:39 26° 279° (W) 05:28:16 435.215
PRISM 04 Mar 05:15:54 05:19:26 28° 68° (ENE) 05:23:05 437.425
HORYU 2 04 Mar 05:15:59 05:19:14 20° 295° (WNW) 05:22:21 437.375
Cubesat XI-IV 04 Mar 05:37:03 05:40:34 18° 89° (E) 05:44:16 437.490
CUTE-I 04 Mar 05:45:15 05:49:12 21° 91° (E) 05:53:17 437.470
PCSat 04 Mar 05:50:30 05:55:57 78° 242° (WSW) 06:01:22 145.827
STRAND 1 04 Mar 05:52:38 05:57:28 45° 70° (ENE) 06:02:24 437.568
JAS-2 04 Mar 06:38:25 06:44:26 27° 299° (WNW) 06:50:32 435.910
CUBESAT XI-V 04 Mar 06:47:13 06:51:35 36° 264° (W) 06:55:56 437.345
AIST 1 04 Mar 06:48:05 06:52:06 38° 92° (E) 06:56:12
PRISM 04 Mar 06:51:24 06:54:57 26° 265° (W) 06:58:28 437.425
AO-7 04 Mar 07:06:53 07:12:40 21° 311° (NW) 07:18:09 29.400- 29.500
RS-15 04 Mar 07:15:10 07:26:18 57° 44° (NE) 07:37:59 29.354- 29.394
Cubesat XI-IV 04 Mar 07:15:52 07:21:13 63° 288° (WNW) 07:26:30 437.490
CUTE-I 04 Mar 07:24:26 07:29:41 54° 289° (WNW) 07:34:52 437.470
GONETS M04 04 Mar 07:29:56 07:36:30 24° 61° (ENE) 07:43:23
STRAND 1 04 Mar 07:32:43 07:36:55 24° 267° (W) 07:41:02 437.568
PCSat 04 Mar 07:37:11 07:38:35 11° 257° (WSW) 07:39:38 145.827
CANX-2 04 Mar 08:06:31 08:08:46 14° 89° (E) 08:11:12 2200.000
CUTE 1.7 + AOD 2 04 Mar 08:24:11 08:27:19 20° 92° (E) 08:30:33 437.475
AIST 1 04 Mar 08:26:39 08:29:58 20° 291° (WNW) 08:33:13
HO-68 04 Mar 08:35:05 08:41:37 37° 96° (E) 08:48:12 435.675
O/OREOS (USA 219) 04 Mar 08:35:34 08:39:19 26° 104° (ESE) 08:43:12 437.305
ANTELSAT 04 Mar 08:39:36 08:40:20 10° 61° (ENE) 08:41:18 437.575/2403.000
ISS 04 Mar 08:50:17 08:53:26 54° 144° (SE) 08:56:36 145.825
SO-50 04 Mar 08:51:35 08:55:35 24° 39° (NE) 08:59:39 436.795
GOMX 1 04 Mar 08:53:21 08:57:32 43° 97° (E) 09:01:32 467.674
BRITE-PL 04 Mar 08:57:11 09:01:46 74° 102° (ESE) 09:06:00 437.365/2234.400
Cubesat XI-IV 04 Mar 08:59:56 09:00:23 10° 305° (NW) 09:00:33 437.490
AAUSAT CUBESAT 2 04 Mar 09:01:11 09:04:54 30° 95° (E) 09:08:39 437.432
NANOSAT C BR1 04 Mar 09:03:02 09:03:15 10° 60° (ENE) 09:03:41 145.865
COMPASS 1 04 Mar 09:05:00 09:08:56 38° 97° (E) 09:12:54 437.405
Oscar 11 04 Mar 09:06:51 09:09:43 18° 91° (E) 09:12:43 145.826/435.025
CINEMA 3 04 Mar 09:15:30 09:19:02 27° 94° (E) 09:22:36 145.822/145.860
DOVE 4 04 Mar 09:19:56 09:24:09 58° 99° (E) 09:28:14 437.250
CUBEBUG 2 04 Mar 09:24:55 09:27:53 19° 92° (E) 09:30:58 437.445
GONETS M04 04 Mar 09:25:48 09:34:35 82° 263° (W) 09:43:22
RS-15 04 Mar 09:27:54 09:38:46 50° 247° (WSW) 09:49:56 29.354- 29.394
QB50P1 04 Mar 09:33:07 09:36:16 21° 66° (ENE) 09:39:32 145.935-145.965
UNISAT 6 04 Mar 09:33:47 09:37:47 36° 70° (ENE) 09:41:46 437.425
DX 1 04 Mar 09:34:22 09:37:00 16° 90° (E) 09:39:47 434.975-435.025
SEEDS 04 Mar 09:34:48 09:39:03 82° 285° (WNW) 09:43:18 437.485
BUGSAT 1 04 Mar 09:34:50 09:37:31 17° 64° (ENE) 09:40:19 437.445
QB50P2 04 Mar 09:37:22 09:40:43 23° 67° (ENE) 09:44:10 145.880/145.840
CANX-2 04 Mar 09:40:57 09:45:07 54° 287° (WNW) 09:49:16 2200.000
HUMSAT D 04 Mar 09:47:31 09:48:59 12° 88° (E) 09:50:41 437.325/437.525
DUCHIFAT 1 04 Mar 09:50:27 09:54:10 30° 69° (ENE) 09:57:57 145.980
FUNcube-1 04 Mar 09:54:38 09:58:09 27° 94° (E) 10:01:45 145.935
VELOX 1 04 Mar 09:55:42 09:56:44 11° 87° (E) 09:58:01 145.980
ZACube-1 04 Mar 09:56:29 10:00:06 29° 95° (E) 10:03:46 437.345
TIGRISAT 04 Mar 09:57:38 10:01:58 63° 74° (ENE) 10:06:15 435.000
DELFI C3 04 Mar 09:58:19 10:02:18 48° 99° (E) 10:06:17 145.870
CUTE 1.7 + AOD 2 04 Mar 09:59:27 10:03:25 38° 289° (WNW) 10:07:21 437.475
UKube-1 04 Mar 10:00:50 10:04:36 28° 95° (E) 10:08:23 .
POPSAT HIP 1 04 Mar 10:11:53 10:16:03 51° 73° (ENE) 10:20:14 437.405
ANTELSAT 04 Mar 10:12:10 10:16:34 88° 257° (WSW) 10:20:54 437.575/2403.000
POLYITAN 1 04 Mar 10:12:17 10:16:27 53° 73° (ENE) 10:20:39 437.675
O/OREOS (USA 219) 04 Mar 10:14:26 10:18:39 34° 302° (WNW) 10:22:52 437.305
UWE-3 04 Mar 10:19:20 10:23:28 64° 101° (E) 10:27:37 435.000/436.395/437.385
HO-68 04 Mar 10:22:40 10:29:31 47° 295° (WNW) 10:36:17 435.675
ISS 04 Mar 10:27:04 10:30:00 31° 342° (NNW) 10:32:56 145.825
SO-50 04 Mar 10:31:40 10:36:34 62° 239° (WSW) 10:41:25 436.795
GOMX 1 04 Mar 10:32:19 10:35:23 18° 296° (WNW) 10:38:15 467.674
NANOSAT C BR1 04 Mar 10:34:13 10:38:30 90° 85° (E) 10:42:49 145.865
AAUSAT CUBESAT 2 04 Mar 10:37:00 10:40:28 25° 292° (WNW) 10:43:52 437.432
BRITE-PL 04 Mar 10:37:40 10:39:40 12° 300° (WNW) 10:41:25 437.365/2234.400
COMPASS 1 04 Mar 10:41:16 10:44:26 20° 294° (WNW) 10:47:31 437.405
Oscar 11 04 Mar 10:42:02 10:46:11 45° 288° (WNW) 10:50:18 145.826/435.025
CINEMA 3 04 Mar 10:52:42 10:56:15 26° 292° (WNW) 10:59:42 145.822/145.860
50 SAT 04 Mar 10:59:10 11:03:03 52° 100° (E) 11:06:56 437.505
DOVE 4 04 Mar 10:59:11 11:01:29 14° 298° (WNW) 11:03:37 437.250
CUBEBUG 2 04 Mar 11:00:56 11:04:48 37° 289° (WNW) 11:08:37 437.445
QB50P1 04 Mar 11:07:55 11:11:57 39° 262° (W) 11:15:59 145.935-145.965
BUGSAT 1 04 Mar 11:08:29 11:12:40 51° 260° (W) 11:16:51 437.445
DX 1 04 Mar 11:09:21 11:13:37 51° 288° (WNW) 11:17:50 434.975-435.025
UNISAT 6 04 Mar 11:11:16 11:14:44 22° 267° (W) 11:18:03 437.425
QB50P2 04 Mar 11:12:34 11:16:30 34° 263° (W) 11:20:25 145.880/145.840
CUBEBUG 1 04 Mar 11:18:12 11:22:18 37° 97° (E) 11:26:22 437.445
DANDE 04 Mar 11:20:42 11:23:21 66° 262° (W) 11:25:58 436.750
AISAT 04 Mar 11:20:50 11:25:20 90° 101° (ESE) 11:29:45 437.250
HUMSAT D 04 Mar 11:21:11 11:25:16 61° 286° (WNW) 11:29:19 437.325/437.525
GONETS M04 04 Mar 11:24:55 11:30:13 17° 283° (WNW) 11:35:00
DUCHIFAT 1 04 Mar 11:26:25 11:30:03 26° 266° (W) 11:33:37 145.980
VELOX 1 04 Mar 11:29:30 11:33:58 76° 286° (WNW) 11:38:23 145.980
FUNcube-1 04 Mar 11:30:58 11:34:30 27° 291° (WNW) 11:37:59 145.935
ZACube-1 04 Mar 11:32:58 11:36:26 25° 292° (WNW) 11:39:50 437.345
DELFI C3 04 Mar 11:34:36 11:37:10 16° 295° (WNW) 11:39:37 145.870
UKube-1 04 Mar 11:36:58 11:40:44 28° 293° (WNW) 11:44:25 .
TIGRISAT 04 Mar 11:37:12 11:39:13 13° 272° (W) 11:41:01 435.000
Oscar 19 04 Mar 11:37:34 11:40:44 17° 61° (ENE) 11:44:04 437.125/150
CUSAT 1 04 Mar 11:40:03 11:42:08 21° 265° (W) 11:44:13 437.405
TISAT 1 04 Mar 11:41:38 11:44:01 15° 90° (E) 11:46:33 437.305
SPROUT 04 Mar 11:43:54 11:46:50 18° 91° (E) 11:49:52 437.525
POPSAT HIP 1 04 Mar 11:49:40 11:52:18 15° 270° (W) 11:54:47 437.405
POLYITAN 1 04 Mar 11:50:13 11:52:46 15° 270° (W) 11:55:09 437.675
ESTCUBE 1 04 Mar 11:51:55 11:56:31 89° 278° (W) 12:01:03 437.505/2401.250
UWE-3 04 Mar 11:57:37 11:59:35 13° 297° (WNW) 12:01:23 435.000/436.395/437.385
ISS 04 Mar 12:04:32 12:07:05 21° 2° (N) 12:09:38 145.825
